DW8873 Weather Reports


Display with metric or nautical units.
time (UTC)temp
F
wind
direction
speed
MPH
gust
MPH
rain 1hr
in
rain 24hr
in
rain mn
in
humidity
%
barometer
mb
20260903100732 67 243 0.0 3.0 0.00 0.00 0.00 54 1015.7
20260903095731 67 308 1.0 2.0 0.00 0.00 0.00 52 1015.4
20260903094730 68 318 0.0 2.0 0.00 0.00 0.00 50 1015.4
20260903093728 68 318 0.0 1.0 0.00 0.00 0.00 49 1015.0
20260903092727 69 318 0.0 1.0 0.00 0.00 0.00 46 1015.0
20260903091725 69 318 0.0 1.0 0.00 0.00 0.00 43 1014.7
20260903090724 70 318 0.0 1.0 0.00 0.00 0.00 39 1014.3
20260903085722 70 318 1.0 1.0 0.00 0.00 0.00 34 1014.3
20260903084721 71 319 0.0 2.0 0.00 0.00 0.00 32 1014.0
20260903083719 72 319 1.0 2.0 0.00 0.00 0.00 31 1013.7
20260903082718 72 255 1.0 2.0 0.00 0.00 0.00 29 1013.3
20260903081644 73 255 1.0 2.0 0.00 0.00 0.00 29 1013.3
20260903080643 73 257 1.0 5.0 0.00 0.00 0.00 28 1013.0
20260903075642 74 225 0.0 6.0 0.00 0.00 0.00 27 1013.0
20260903074609 75 264 2.0 3.0 0.00 0.00 0.00 28 1012.7
20260903073608 75 47 0.0 3.0 0.00 0.00 0.00 30 1012.7
20260903072607 76 47 1.0 3.0 0.00 0.00 0.00 30 1012.3
20260903071605 76 48 0.0 4.0 0.00 0.00 0.00 31 1012.0
20260903070604 77 73 2.0 4.0 0.00 0.00 0.00 30 1011.7
20260903065532 77 208 1.0 5.0 0.00 0.00 0.00 31 1011.7
20260903064530 77 104 2.0 5.0 0.00 0.00 0.00 32 1011.3
20260903063529 78 258 1.0 8.0 0.00 0.00 0.00 33 1011.3
20260903062527 78 266 1.0 9.0 0.00 0.00 0.00 32 1011.0
20260903061455 78 84 1.0 9.0 0.00 0.00 0.00 31 1010.6
20260903060453 79 240 3.0 10.0 0.00 0.00 0.00 30 1010.6
20260903055451 79 238 2.0 12.0 0.00 0.00 0.00 30 1010.3
20260903054450 79 250 4.0 12.0 0.00 0.00 0.00 29 1010.3
20260903053449 80 236 3.0 10.0 0.00 0.00 0.00 29 1010.3
20260903052448 80 97 1.0 9.0 0.00 0.00 0.00 30 1010.3
20260903051447 81 258 2.0 9.0 0.00 0.00 0.00 29 1010.3
20260903050446 81 259 3.0 10.0 0.00 0.00 0.00 27 1010.3
20260903045444 82 263 3.0 10.0 0.00 0.00 0.00 29 1010.3
20260903044442 82 246 2.0 10.0 0.00 0.00 0.00 30 1010.0
20260903043441 82 294 3.0 10.0 0.00 0.00 0.00 32 1009.7
20260903042439 82 267 3.0 10.0 0.00 0.00 0.00 33 1009.7
20260903041437 83 276 3.0 10.0 0.00 0.00 0.00 33 1009.7
20260903040436 83 274 2.0 9.0 0.00 0.00 0.00 32 1009.7
20260903035435 83 269 2.0 9.0 0.00 0.00 0.00 32 1009.7
20260903034433 83 230 2.0 9.0 0.00 0.00 0.00 33 1009.3
20260903033432 83 251 2.0 9.0 0.00 0.00 0.00 32 1009.7
20260903032430 83 259 3.0 9.0 0.00 0.00 0.00 32 1009.7
20260903031428 82 235 2.0 13.0 0.00 0.00 0.00 36 1009.6
20260903030427 83 247 5.0 13.0 0.00 0.00 0.00 34 1009.6
20260903025425 83 258 2.0 9.0 0.00 0.00 0.00 36 1009.3
20260903024423 82 275 3.0 10.0 0.00 0.00 0.00 36 1009.3
20260903023350 83 240 5.0 10.0 0.00 0.00 0.00 34 1009.3
20260903022317 83 212 2.0 9.0 0.00 0.00 0.00 36 1009.3
20260903021316 83 261 3.0 11.0 0.00 0.00 0.00 35 1009.3
20260903020315 82 270 2.0 11.0 0.00 0.00 0.00 35 1009.3
20260903015313 82 222 2.0 10.0 0.00 0.00 0.00 35 1009.3
20260903014311 82 248 4.0 10.0 0.00 0.00 0.00 35 1009.3
20260903013309 81 250 3.0 10.0 0.00 0.00 0.00 36 1009.6
20260903012308 81 274 3.0 10.0 0.00 0.00 0.00 35 1009.3
20260903011306 81 253 4.0 10.0 0.00 0.00 0.00 35 1009.3
20260903010304 80 274 3.0 9.0 0.00 0.00 0.00 34 1009.3
20260903005306 80 245 3.0 13.0 0.00 0.00 0.00 35 1009.3
20260903004300 81 252 5.0 13.0 0.00 0.00 0.00 35 1009.3
20260903003157 81 266 4.0 8.0 0.00 0.00 0.00 38 1009.0
20260903002156 81 141 2.0 8.0 0.00 0.00 0.00 39 1008.6
20260903001154 80 263 2.0 13.0 0.00 0.00 0.00 39 1009.0
20260903000152 80 251 2.0 13.0 0.00 0.00 0.00 40 1009.0
20260902235151 80 233 4.0 10.0 0.00 0.00 0.00 40 1009.0
20260902234149 80 251 2.0 8.0 0.00 0.00 0.00 41 1008.6
20260902233147 80 238 2.0 8.0 0.00 0.00 0.00 40 1008.6
20260902232146 80 236 1.0 8.0 0.00 0.00 0.00 41 1008.6
20260902231144 81 297 2.0 7.0 0.00 0.00 0.00 40 1008.6
20260902230143 80 271 2.0 5.0 0.00 0.00 0.00 41 1008.6
20260902225141 80 307 2.0 8.0 0.00 0.00 0.00 42 1008.6
20260902224140 79 334 2.0 8.0 0.00 0.00 0.00 44 1008.3
20260902223138 77 74 1.0 8.0 0.00 0.00 0.00 45 1008.3
20260902222137 76 328 3.0 10.0 0.00 0.00 0.00 46 1008.3
20260902221135 75 346 3.0 11.0 0.00 0.00 0.00 49 1008.3
20260902220134 74 342 2.0 5.0 0.00 0.00 0.00 50 1008.6
20260902215133 74 346 1.0 4.0 0.00 0.00 0.00 54 1008.6
20260902214131 72 343 1.0 1.0 0.00 0.00 0.00 57 1008.6
20260902213129 71 342 0.0 1.0 0.00 0.00 0.00 58 1008.6
20260902212128 69 342 0.0 1.0 0.00 0.00 0.00 59 1008.6
20260902211126 69 343 0.0 2.0 0.00 0.00 0.00 59 1008.6
20260902210125 68 343 0.0 5.0 0.00 0.00 0.00 58 1008.3
20260902205123 68 343 1.0 5.0 0.00 0.00 0.00 58 1008.3
20260902204020 68 337 1.0 5.0 0.00 0.00 0.00 58 1008.3
20260902203018 68 337 1.0 7.0 0.00 0.00 0.00 59 1008.3
20260902202017 68 337 2.0 7.0 0.00 0.00 0.00 59 1008.6
20260902201015 67 343 3.0 7.0 0.00 0.00 0.00 59 1008.6
20260902195912 68 335 1.0 7.0 0.00 0.00 0.00 59 1008.6
20260902194910 68 350 3.0 11.0 0.00 0.00 0.00 59 1008.6
20260902193909 68 350 5.0 11.0 0.00 0.00 0.00 59 1008.3
20260902192908 68 335 4.0 7.0 0.00 0.00 0.00 59 1009.0
20260902191906 68 340 2.0 6.0 0.00 0.00 0.00 59 1009.0
20260902190904 68 353 2.0 3.0 0.00 0.00 0.00 59 1009.6
20260902185903 68 354 1.0 4.0 0.00 0.00 0.00 59 1009.6
20260902184901 68 354 1.0 4.0 0.00 0.00 0.00 59 1009.6
20260902183900 69 341 2.0 4.0 0.00 0.00 0.00 59 1009.6
20260902182859 69 255 0.0 4.0 0.00 0.00 0.00 59 1010.3
20260902181858 69 255 0.0 4.0 0.00 0.00 0.00 58 1010.3
20260902180856 69 300 1.0 2.0 0.00 0.00 0.00 56 1009.6
20260902175855 69 336 0.0 3.0 0.00 0.00 0.00 56 1009.3
20260902174853 69 336 0.0 3.0 0.00 0.00 0.00 56 1009.3
20260902173851 69 335 2.0 7.0 0.00 0.00 0.00 56 1009.3
20260902172849 69 344 1.0 7.0 0.00 0.00 0.00 57 1009.6
20260902171816 69 337 2.0 6.0 0.00 0.00 0.00 57 1009.6
20260902170814 69 354 1.0 6.0 0.00 0.00 0.00 58 1010.0
20260902165813 69 346 2.0 4.0 0.00 0.00 0.00 58 1010.0
20260902164812 69 309 1.0 4.0 0.00 0.00 0.00 58 1010.3
20260902163811 69 353 1.0 3.0 0.00 0.00 0.00 58 1010.3
20260902162809 69 340 1.0 3.0 0.00 0.00 0.00 57 1010.3
20260902161808 69 357 2.0 4.0 0.00 0.00 0.00 57 1010.7
20260902160806 69 340 1.0 5.0 0.00 0.00 0.00 58 1010.7
20260902155805 69 333 1.0 9.0 0.00 0.00 0.00 58 1011.0
20260902154803 69 334 2.0 7.0 0.00 0.00 0.00 57 1011.0
20260902153801 69 356 2.0 7.0 0.00 0.00 0.00 58 1011.4
20260902152800 68 358 1.0 6.0 0.00 0.00 0.00 58 1011.0
20260902151758 67 329 2.0 3.0 0.00 0.00 0.00 59 1011.3
20260902150757 66 330 2.0 3.0 0.00 0.00 0.00 59 1011.3
20260902145653 66 323 1.0 3.0 0.00 0.00 0.00 59 1011.7
20260902144652 66 23 1.0 2.0 0.00 0.00 0.00 59 1011.7
20260902143650 66 295 0.0 1.0 0.00 0.00 0.00 59 1011.7
20260902142649 66 295 0.0 1.0 0.00 0.00 0.00 59 1012.0
20260902141617 66 295 0.0 2.0 0.00 0.00 0.00 59 1012.0
20260902140544 65 295 1.0 2.0 0.00 0.00 0.00 59 1012.0
20260902135543 65 295 0.0 1.0 0.00 0.00 0.00 59 1012.0
20260902134541 65 295 0.0 0.0 0.00 0.00 0.00 59 1012.3
20260902133539 65 295 0.0 0.0 0.00 0.00 0.00 59 1012.3
20260902132538 65 295 0.0 1.0 0.00 0.00 0.00 59 1012.3
20260902131536 65 295 0.0 1.0 0.00 0.00 0.00 59 1012.7
20260902130534 65 295 0.0 1.0 0.00 0.00 0.00 59 1012.7
20260902125533 66 295 0.0 1.0 0.00 0.00 0.00 59 1012.7
20260902124531 65 295 1.0 1.0 0.00 0.00 0.00 59 1012.7
20260902123529 65 295 0.0 1.0 0.00 0.00 0.00 59 1013.0
20260902122528 66 295 0.0 1.0 0.00 0.00 0.00 59 1013.0
20260902121526 66 295 0.0 1.0 0.00 0.00 0.00 59 1013.0
20260902120525 66 295 0.0 2.0 0.00 0.00 0.00 59 1013.0
20260902115523 66 295 1.0 2.0 0.00 0.00 0.00 59 1013.3
20260902114522 66 295 0.0 1.0 0.00 0.00 0.00 59 1013.3
20260902113417 68 295 0.0 2.0 0.00 0.00 0.00 59 1013.3
20260902112345 69 295 1.0 2.0 0.00 0.00 0.00 56 1013.3
20260902111343 70 295 0.0 1.0 0.00 0.00 0.00 52 1013.3
20260902110342 70 295 0.0 1.0 0.00 0.00 0.00 51 1013.3
20260902105341 71 295 0.0 2.0 0.00 0.00 0.00 50 1013.3
20260902104339 70 295 1.0 2.0 0.00 0.00 0.00 50 1013.3
20260902103336 70 295 0.0 1.0 0.00 0.00 0.00 50 1013.3
20260902102334 71 295 0.0 2.0 0.00 0.00 0.00 49 1013.3
20260902101333 71 295 0.0 2.0 0.00 0.00 0.00 48 1013.3